Home   Weather   Santa Ana   Past weeks

Flag for El Salvador Past Weather in Santa Ana, El Salvador — Yesterday and Last 2 Weeks

Now
64 °F

Fog.


Feels Like: 64 °F
Forecast: 63 / 85 °F
Wind: No wind

Location: San Salvador / Ilopango

Current Time: Jan 22, 2017 at 8:45:25 am

Latest Report: Jan 22, 2017 at 7:50 am


Visibility: N/A

Pressure: 30.01 "Hg (27.81 "Hg at 650m altitude)

Humidity: 94%

Dew Point: 63 °F

Location of Santa AnaLocation

Past Weather in Santa Ana — Graph

°F

Santa Ana Temperature Yesterday

Maximum temperature yesterday: 82 °F (at 12:50 pm)
Minimum temperature yesterday: 63 °F (at 5:50 am)
Average temperature yesterday: 73 °F

High & Low Weather Summary for the Past Weeks

 TemperatureHumidityPressure
High90 °F (Jan 13, 2:50 pm)100% (Jan 18, 5:50 am)30.18 "Hg (Jan 18, 5:50 am)
Low63 °F (Jan 9, 5:50 am)35% (Jan 7, 3:50 pm)29.86 "Hg (Jan 9, 8:50 am)
Average75 °F65%30.04 "Hg
* Reported Jan 7 6:50 am — Jan 22 6:50 am, Santa Ana, Weather by CustomWeather, © 2017

Note: Actual official high and low records may vary slightly from our data, if they occured in-between our weather recording intervals... More about our weather records

Advertising

Santa Ana Weather History for the Previous 24 Hours

Scroll right to see more
 ConditionsComfort  
Time TempWeatherWind HumidityBarometerVisibility
6:50 am
Sun, Jan 22
63 °FPassing clouds.2 mph94%30.01 "HgN/A
5:50 am63 °FClear.5 mph94%29.98 "Hg10 mi
11:50 pm
Sat, Jan 21
64 °FPassing clouds.3 mph94%30.01 "HgN/A
10:50 pm68 °FPassing clouds.3 mph94%30.04 "HgN/A
9:50 pm68 °FPassing clouds.3 mph94%30.01 "HgN/A
8:50 pm68 °FClear.5 mph94%30.01 "Hg10 mi
7:50 pm68 °FPassing clouds.3 mph94%30.01 "HgN/A
6:50 pm70 °FPassing clouds.5 mph88%29.98 "HgN/A
5:50 pm73 °FPassing clouds.5 mph83%N/AN/A
4:50 pm75 °FPassing clouds.7 mph69%29.98 "HgN/A
3:50 pm77 °FScattered clouds.8 mph61%29.95 "HgN/A
2:50 pm79 °FScattered clouds.3 mph65%29.98 "HgN/A
1:50 pm81 °FScattered clouds.7 mph66%30.01 "HgN/A
12:50 pm82 °FScattered clouds.9 mph55%30.04 "HgN/A
11:50 am81 °FScattered clouds.8 mph74%30.07 "HgN/A
10:50 am79 °FScattered clouds.12 mph58%30.09 "HgN/A
9:50 am77 °FScattered clouds.7 mph65%30.09 "HgN/A
8:50 am75 °FScattered clouds.2 mph74%30.09 "HgN/A
Weather by CustomWeather, © 2017

See weather overviewHow to use our weather pages